* Astronomy

Members Login
Post Info TOPIC: Asteroid 2010 OL100


L

Posts: 131433
Date:
Asteroid 2010 OL100
Permalink  
 


Orbital elements:
2010 OL100                                               Earth MOID = 0.1286 AU
Epoch 2013 Apr. 18.0 TT = JDT 2456400.5                 MPC
M 272.50619              (2000.0)            P               Q
n   0.28950383     Peri.  148.08424     +0.94245964     -0.19614959
a   2.2630797      Node   225.87023     +0.16687747     +0.97770716
e   0.6531717      Incl.   22.15949     +0.28969249     +0.07492696
P   3.40           H   19.6           G   0.15           U   1

MPEC 2013 - O40

Key to Orbital elements



__________________


L

Posts: 131433
Date:
Permalink  
 

Orbital elements:
2010 OL100 Earth MOID = 0.1284 AU
Epoch 2010 July 23.0 TT = JDT 2455400.5 MPC
M 343.23977 (2000.0) P Q
n 0.28557282 Peri. 147.93897 +0.94227205 -0.19479689
a 2.2838003 Node 225.96026 +0.16563403 +0.97804308
e 0.6571660 Incl. 22.26387 +0.29101332 +0.07406688
P 3.45 H 19.5 G 0.15 U 9

MPEC 2010 - P03


__________________
Page 1 of 1  sorted by
Quick Reply

Please log in to post quick replies.



Create your own FREE Forum
Report Abuse
Powered by ActiveBoard